Погода в Стрелецком

Россия / Белгородская область     50°38′40″N   36°28′01″E
темп.,
°C
ветер,
м/с
пор.,
м/с
влажн.,
%
обл.,
%
осадки,
мм/ч
давл.,
гПа
погр.,
м
23 апреля, пт
пт2300:00+11ююз3769100 0.0 1019154
03:00+10ю3874100 0.0 1019184
06:00+8ю368475 0.1 1019130
09:00+13ююз69685 0.3 1018679
12:00+15ююз795360 0.3 10171579
15:00+17ююз71047100 1.8 10152635
18:00+12юз6976100 1.3 10141006
21:00+10ююз41185100 5.5 10131191
24 апреля, сб
сб2400:00+7зсз5891100 1.9 1013400
03:00+4сз71296100 3.4 1014652
06:00+5з388817 1.3 1013615
09:00+7з79678 1.6 10131177
12:00+9з8104814 0.3 10142111
15:00+7з111261100 0.5 10151617
18:00+6зсз912605 0.3 10151537
21:00+4з612650 0.3 1018614
25 апреля, вс
вс2500:00+2з511720 0.0 1018423
03:00+1зюз411770 0.0 1019307
06:000зюз410810 0.0 1020244
09:00+6зюз58540 0.0 1019979
12:00+9юз79405 0.0 10182018
15:00+10юз81250100 0.1 10172167
18:00+8з697897 0.5 1016958
21:00+5зюз3786100 1.6 1017513
26 апреля, пн
пн2600:00+5зсз2588100 0.1 1018457
03:00+3зсз2388100 0.1 1017112
06:00+2ссз228274 0.0 101756
09:00+5сз235876 0.0 1016808
12:00+7з2347100 0.0 10151617
15:00+9зюз3442100 0.0 10141863
18:00+8з455484 0.0 10121440
21:00+5зюз33685 0.2 101350
27 апреля, вт
вт2700:00+2зюз38767 0.0 1013171
03:00+1зюз4109070 0.1 1013337
06:00+1зюз510913 0.0 1014351
09:00+5з58588 0.0 10141209
12:00+8з7943100 0.0 10142469
15:00+9з7941100 0.0 10132477
18:00+8з685332 0.3 10131426
21:00+4з367498 0.4 1015151